Temperature
15 15 15 15 15 14 14 13 13 12 13 14 14 14 15 15 15 15 16 16 16 16 16 16 16 16 16 16 16 16 16 16 16 16 16 16 16 16
14 14 14 15 14 14 14 14 13 13 12 13 13 13 14 14 14 14 15 15 15 16 16 15 15 15 15 15 15 15 15 15 15 15 15 16 16 16
13 13 14 14 14 14 14 14 13 13 13 13 13 13 13 13 13 13 14 14 14 14 15 15 15 15 15 15 15 15 15 15 15 15 15 15 15 15
12 12 13 13 13 14 14 13 13 13 13 13 13 13 13 13 13 13 13 13 13 13 14 14 14 14 14 14 14 14 14 14 14 14 14 15 15 15
11 11 12 12 12 13 13 13 13 13 13 13 13 13 12 12 12 12 12 12 12 12 12 13 13 13 13 13 13 13 13 13 13 14 14 14 14 14
10 10 11 11 12 12 13 13 13 13 13 13 13 12 12 12 12 12 12 11 11 12 12 12 12 12 12 12 13 13 13 13 13 13 13 13 13 13
9 10 10 11 11 12 12 13 13 13 13 13 12 12 12 12 12 12 11 11 11 11 11 11 11 12 12 12 12 12 12 12 12 12 12 13 13 13
9 9 10 10 10 11 12 12 13 13 13 13 12 12 12 12 12 12 11 11 10 10 11 11 11 11 11 11 11 11 11 11 11 12 12 12 12 12
9 9 9 10 10 11 11 12 12 12 13 13 12 13 13 12 12 12 11 11 11 10 10 10 10 10 10 10 10 10 10 10 10 10 10 11 11 11
9 9 9 9 10 10 11 11 12 12 12 12 13 13 13 13 13 12 12 11 11 10 10 10 9 9 9 9 9 9 9 9 9 9 9 9 10 10
8 8 9 9 9 10 10 11 11 12 12 12 12 12 12 12 12 12 11 11 10 9 10 10 9 9 9 8 8 8 8 8 8 8 8 8 8 9
8 8 8 9 9 9 10 10 11 12 12 12 12 12 12 12 12 12 12 11 10 9 9 10 9 9 7 7 8 7 7 7 7 7 7 7 7 8
8 8 8 8 9 9 9 10 11 11 11 12 12 12 11 11 11 11 12 12 11 10 10 10 9 9 9 7 7 7 7 7 7 6 6 6 7 7
8 8 8 8 8 9 9 10 10 10 11 11 11 11 11 11 11 11 11 11 11 12 11 11 10 10 10 8 7 7 7 7 6 6 6 6 6 6
8 8 8 8 8 8 9 9 9 10 10 11 11 11 11 11 10 10 10 10 10 11 11 11 11 11 10 10 8 8 7 7 7 7 7 7 7 7
7 7 7 8 8 8 9 9 9 10 10 10 11 11 10 10 10 10 9 9 10 10 10 10 10 10 10 10 10 9 8 7 7 7 7 7 7 7
7 7 7 7 8 8 8 8 9 9 10 10 10 10 10 10 10 9 10 10 10 10 10 10 9 9 10 10 9 9 8 8 8 7 7 7 7 7
7 7 7 7 7 7 8 8 8 9 10 10 10 10 10 10 9 9 10 10 10 10 10 10 9 9 9 9 9 9 9 8 8 8 7 7 8 8
7 7 7 7 7 7 7 8 8 9 9 10 10 10 10 10 10 10 10 10 10 10 10 10 10 10 9 9 9 9 9 9 8 8 8 8 8 8
7 7 7 7 7 7 7 7 8 8 9 9 10 10 10 10 10 10 10 10 10 10 10 10 10 10 10 10 10 9 9 9 8 8 8 8 8 8
6 6 7 7 7 7 7 7 8 8 9 9 10 10 10 10 10 10 10 10 10 10 10 10 11 10 10 10 10 10 9 9 9 9 9 8 9 9
6 6 6 6 7 7 7 7 8 8 9 9 10 10 10 10 10 10 10 10 10 10 10 10 10 10 10 10 10 10 9 9 9 9 9 9 9 9
6 6 6 7 7 7 7 8 8 9 9 10 10 10 10 10 9 9 9 9 9 10 10 10 10 10 9 9 9 9 9 9 9 9 9 9 9 9
Wind_Speed
9 9 7 6 7 7 6 5 4 2 2 2 1 2 3 4 5 5 4 4 7 9 11 11 12 12 12 12 12 11 10 9 8 6 4 3 4 7
7 9 9 6 6 7 7 6 6 5 4 2 1 0 2 3 5 6 7 9 10 12 13 14 15 16 16 16 16 16 15 14 12 11 9 8 6 4
7 8 9 8 7 7 7 7 7 6 6 4 2 1 1 3 4 6 8 8 9 13 15 16 18 18 18 18 17 17 17 16 15 14 14 14 13 12
6 7 8 7 9 8 7 8 7 8 6 6 3 2 2 5 6 7 6 8 9 13 15 16 17 18 18 18 18 18 18 18 18 17 17 18 18 18
5 6 7 7 9 8 8 8 7 7 6 5 4 2 2 5 6 7 8 7 9 12 14 15 16 17 18 19 19 19 20 20 20 20 20 20 20 21
6 5 6 8 9 9 9 9 8 7 7 6 5 4 3 5 7 8 7 6 6 7 10 13 16 17 17 18 19 20 21 22 22 22 23 23 23 23
6 6 7 8 11 10 8 9 9 8 7 7 6 6 6 7 8 6 8 8 6 5 7 7 9 10 12 16 18 20 21 23 23 24 24 25 25 24
7 6 7 9 11 12 14 13 13 11 10 9 8 8 10 8 8 11 10 8 5 4 6 6 6 8 8 11 16 20 21 22 22 23 24 24 24 24
8 7 6 6 8 7 10 13 14 15 14 11 11 11 12 12 13 13 12 8 6 9 8 6 6 8 8 12 16 19 20 21 21 22 22 22 22 22
9 8 7 7 7 7 7 9 10 11 14 13 11 11 11 14 15 13 13 10 10 6 4 6 5 6 6 9 13 17 18 19 20 20 21 21 20 20
8 8 8 8 9 9 9 9 9 9 11 14 13 11 14 17 17 15 14 14 11 6 3 5 6 5 5 5 8 12 15 16 16 17 17 18 17 16
6 6 8 9 8 9 9 9 10 9 8 9 10 12 15 19 21 18 17 17 14 7 5 5 9 6 5 3 4 7 9 10 12 13 13 13 12 10
6 5 5 8 9 9 10 9 10 8 9 9 9 11 12 14 15 12 12 16 15 7 10 7 8 5 5 6 4 5 6 6 7 7 9 9 9 7
7 6 6 7 8 8 8 8 10 10 8 8 9 10 12 13 12 12 10 9 7 9 13 10 8 6 7 8 6 5 5 5 6 6 6 7 6 5
6 7 7 6 6 5 7 9 10 9 9 9 10 9 9 12 12 11 10 9 9 12 14 10 10 9 9 8 8 7 6 5 5 5 5 6 5 5
6 5 6 5 4 4 4 6 7 8 9 8 9 9 10 12 12 12 12 11 10 7 5 7 11 11 8 7 9 8 7 7 6 5 5 4 5 6
6 4 3 3 4 3 4 4 5 7 8 9 11 12 12 12 11 10 10 10 8 9 8 4 6 6 5 6 8 9 8 5 5 6 5 4 4 6
8 5 5 5 5 5 4 4 5 6 8 11 12 12 13 13 11 10 10 10 9 9 8 7 8 5 3 3 3 8 8 6 5 6 5 5 5 5
6 5 6 6 5 5 5 5 5 6 8 10 12 12 12 12 12 12 11 10 9 9 9 10 11 10 9 8 3 5 9 6 6 5 5 5 5 4
4 5 6 6 5 5 5 5 6 8 9 10 11 11 11 11 11 11 11 10 10 8 8 9 11 11 10 10 6 5 8 7 7 7 5 4 3 2
5 5 5 5 5 5 5 6 8 9 10 10 11 11 11 11 10 10 9 12 10 8 10 9 6 6 5 7 6 4 5 7 7 6 6 5 4 3
5 4 4 5 5 5 6 7 8 9 10 10 11 10 10 10 11 11 10 10 9 8 8 6 7 7 5 6 7 6 6 5 5 6 8 8 6 6
3 4 4 5 6 6 7 8 9 9 9 10 10 10 10 10 9 9 10 9 8 9 9 7 6 4 4 4 6 5 7 7 6 6 7 14 18 16
Wind_Direction
211 206 205 204 199 202 198 194 201 239 270 270 300 31 35 26 22 31 42 92 125 131 133 135 136 137 138 136 134 131 127 124 122 125 141 164 210 228
216 211 212 207 200 198 199 201 203 210 239 244 240 23 49 58 58 64 73 82 92 107 115 118 115 115 116 116 116 116 113 110 106 105 101 97 93 93
227 219 220 209 203 200 195 195 201 205 232 244 223 192 145 121 97 86 79 77 86 96 105 109 110 111 111 111 110 109 107 106 103 99 94 89 85 82
245 229 226 217 213 202 195 198 200 202 214 232 219 191 170 147 126 107 91 83 86 93 100 105 107 108 109 109 108 107 106 104 101 97 92 87 84 82
250 245 236 222 222 209 201 202 201 198 202 214 216 194 162 147 131 111 101 95 90 94 95 100 105 107 108 108 108 107 105 103 100 96 92 88 86 85
225 239 245 231 227 216 207 205 195 192 197 207 213 203 176 155 143 134 122 105 98 95 94 99 102 103 106 109 110 108 106 104 101 97 94 90 87 85
228 225 235 242 239 224 210 202 191 193 195 204 205 198 181 168 159 145 135 119 94 103 105 96 99 98 101 106 109 110 107 104 102 100 97 95 92 89
237 237 236 244 244 233 222 206 194 193 198 201 203 201 189 171 155 150 143 141 129 134 113 93 96 97 96 105 112 112 109 107 105 103 101 98 94 92
234 239 247 241 238 232 226 214 208 204 200 200 204 202 187 173 161 159 159 150 135 149 129 105 98 93 95 106 113 113 112 111 109 107 104 101 98 95
234 233 238 247 239 228 219 217 216 215 214 215 216 207 189 174 168 158 146 119 112 130 126 118 118 104 100 103 111 115 116 115 114 113 110 106 101 97
234 234 233 242 242 226 219 217 218 221 218 215 213 199 174 162 154 144 143 141 141 145 128 118 132 116 103 101 108 118 119 120 121 120 117 112 107 99
233 232 232 236 239 223 219 216 218 216 199 198 197 183 170 161 158 160 157 154 150 150 165 133 149 137 120 122 127 129 127 126 129 130 128 124 118 108
224 226 229 229 230 223 219 221 218 202 192 187 179 170 164 164 164 159 159 160 159 154 160 146 158 146 133 144 153 156 151 147 143 144 148 142 134 123
216 220 225 227 227 223 218 223 207 191 188 181 174 167 164 164 161 155 149 145 139 143 156 153 154 156 141 147 157 162 165 163 159 155 159 164 160 143
211 209 212 223 223 225 223 212 195 193 186 180 172 162 155 152 146 138 127 115 105 131 151 154 150 151 150 154 160 164 169 177 179 172 172 177 177 173
200 196 196 204 207 212 206 201 201 194 184 172 154 142 139 143 147 148 147 141 131 128 113 141 154 154 155 153 160 166 172 173 176 183 177 184 191 194
170 170 187 193 204 209 199 189 193 180 166 149 145 144 144 144 146 149 149 148 147 157 153 119 104 99 111 151 163 171 170 169 167 164 172 189 203 205
162 183 195 199 204 205 193 179 183 170 156 148 146 145 147 148 147 149 153 157 155 159 160 151 144 132 113 67 142 171 173 168 160 162 172 190 208 208
179 195 199 202 200 195 190 179 171 158 149 145 143 142 143 146 151 156 161 163 164 163 164 165 168 168 178 186 173 180 176 165 159 168 181 192 208 207
202 206 206 201 195 190 178 167 154 148 143 138 137 139 142 146 151 156 161 163 160 157 161 172 179 181 188 184 168 171 179 168 173 181 182 192 220 257
204 211 203 194 181 174 164 153 148 146 143 139 139 141 145 147 149 153 155 154 156 162 170 177 172 139 116 123 133 152 176 188 174 175 174 182 204 220
195 194 185 179 165 158 151 144 142 141 142 141 142 143 145 147 149 150 153 160 165 163 158 142 138 143 145 163 176 173 171 177 193 196 196 194 189 205
178 177 173 163 151 145 143 141 141 142 144 143 143 145 146 146 148 150 154 156 153 147 139 139 147 153 154 167 177 179 180 183 189 203 227 230 233 242
Height
1468 1470 1471 1473 1474 1476 1477 1478 1478 1477 1477 1477 1478 1478 1479 1480 1481 1483 1485 1486 1488 1490 1491 1493 1494 1496 1498 1501 1503 1506 1508 1511 1513 1515 1517 1519 1520 1522
1461 1463 1465 1467 1469 1471 1472 1473 1474 1475 1475 1475 1476 1477 1477 1478 1479 1480 1482 1484 1485 1487 1488 1490 1491 1493 1495 1498 1500 1502 1505 1507 1509 1511 1512 1514 1515 1516
1453 1456 1459 1462 1464 1465 1467 1469 1470 1470 1471 1472 1474 1475 1475 1476 1477 1478 1480 1482 1483 1485 1486 1488 1489 1491 1493 1495 1498 1500 1502 1504 1506 1507 1509 1510 1511 1512
1445 1448 1451 1454 1457 1460 1462 1463 1465 1466 1467 1469 1470 1472 1473 1474 1476 1477 1479 1481 1482 1484 1485 1487 1489 1490 1492 1494 1496 1498 1500 1502 1504 1506 1506 1507 1508 1509
1437 1439 1443 1446 1450 1453 1455 1458 1460 1461 1463 1465 1466 1469 1470 1472 1474 1476 1478 1480 1482 1484 1485 1487 1489 1490 1492 1494 1496 1498 1500 1502 1503 1504 1505 1506 1507 1508
1430 1432 1435 1438 1442 1445 1449 1451 1454 1456 1458 1460 1462 1465 1467 1469 1471 1474 1477 1479 1481 1484 1485 1487 1489 1491 1492 1494 1496 1498 1500 1501 1503 1504 1505 1506 1507 1507
1425 1426 1428 1431 1434 1437 1441 1444 1447 1450 1452 1454 1457 1460 1463 1465 1468 1471 1474 1477 1481 1483 1485 1487 1489 1491 1493 1495 1496 1498 1500 1501 1503 1504 1505 1506 1507 1507
1420 1421 1423 1425 1427 1430 1433 1437 1440 1443 1446 1449 1451 1454 1457 1460 1464 1467 1471 1475 1479 1483 1485 1487 1490 1492 1494 1496 1497 1499 1501 1502 1503 1504 1505 1506 1507 1508
1415 1416 1417 1419 1421 1423 1426 1430 1433 1436 1440 1443 1445 1448 1451 1455 1459 1463 1468 1472 1475 1479 1484 1486 1490 1492 1495 1497 1499 1500 1502 1503 1504 1505 1506 1507 1508 1509
1409 1411 1412 1413 1415 1417 1420 1422 1425 1429 1433 1436 1439 1443 1447 1450 1454 1459 1464 1469 1475 1480 1484 1486 1490 1492 1495 1498 1500 1501 1503 1504 1505 1506 1507 1508 1509 1509
1404 1405 1406 1407 1409 1411 1413 1415 1418 1422 1426 1430 1433 1437 1441 1445 1449 1454 1460 1465 1471 1477 1483 1485 1489 1492 1496 1498 1500 1502 1504 1505 1507 1508 1509 1510 1510 1511
1398 1400 1401 1402 1403 1404 1406 1409 1412 1416 1420 1424 1427 1431 1435 1439 1444 1449 1454 1460 1466 1474 1480 1483 1487 1491 1495 1499 1501 1503 1505 1506 1508 1509 1511 1511 1512 1513
1392 1394 1396 1397 1397 1399 1400 1403 1406 1411 1414 1418 1422 1425 1430 1435 1440 1446 1452 1457 1462 1468 1475 1481 1485 1488 1491 1496 1500 1503 1505 1507 1509 1510 1512 1513 1514 1515
1386 1388 1390 1392 1392 1394 1395 1397 1401 1405 1409 1412 1416 1420 1425 1430 1436 1443 1450 1457 1463 1468 1474 1479 1483 1487 1490 1494 1498 1502 1505 1507 1509 1511 1513 1514 1515 1516
1380 1383 1385 1386 1387 1388 1390 1392 1395 1399 1403 1407 1411 1416 1421 1427 1435 1442 1449 1457 1464 1471 1476 1481 1485 1488 1491 1493 1496 1500 1503 1506 1509 1511 1513 1514 1516 1517
1375 1378 1380 1381 1382 1384 1385 1387 1390 1394 1398 1402 1407 1413 1419 1426 1433 1440 1447 1455 1463 1470 1477 1482 1486 1489 1492 1494 1497 1499 1502 1505 1507 1510 1512 1514 1516 1517
1371 1373 1375 1377 1378 1379 1381 1382 1385 1390 1394 1398 1404 1410 1417 1424 1432 1440 1447 1454 1461 1468 1474 1480 1484 1489 1492 1495 1497 1499 1502 1504 1507 1509 1511 1513 1515 1516
1367 1369 1371 1373 1374 1376 1377 1379 1382 1385 1390 1395 1402 1408 1416 1423 1431 1439 1447 1454 1460 1466 1472 1477 1482 1486 1491 1494 1497 1499 1501 1504 1506 1508 1510 1512 1513 1515
1364 1366 1368 1369 1371 1373 1374 1376 1379 1383 1388 1394 1401 1408 1416 1424 1431 1439 1446 1453 1459 1465 1471 1475 1480 1483 1487 1491 1494 1498 1500 1502 1504 1506 1508 1510 1512 1514
1361 1363 1364 1366 1368 1370 1372 1374 1378 1383 1388 1394 1402 1409 1417 1424 1432 1439 1445 1452 1458 1463 1468 1473 1478 1481 1485 1488 1491 1494 1497 1500 1502 1504 1506 1508 1510 1512
1359 1360 1362 1363 1365 1368 1370 1373 1377 1382 1389 1396 1404 1412 1419 1426 1432 1439 1445 1451 1456 1461 1466 1471 1476 1480 1484 1487 1490 1492 1495 1498 1500 1502 1505 1506 1508 1510
1357 1359 1360 1362 1364 1367 1369 1374 1379 1385 1392 1400 1407 1414 1421 1427 1433 1438 1444 1449 1455 1460 1465 1470 1474 1478 1482 1485 1488 1491 1493 1496 1498 1500 1503 1505 1506 1507
1356 1358 1359 1361 1364 1367 1371 1377 1382 1389 1396 1403 1410 1416 1422 1428 1433 1439 1444 1449 1454 1459 1463 1467 1472 1476 1480 1483 1486 1489 1491 1494 1496 1498 1500 1502 1503 1505